North Conway, NH

9:36 PM EST on December 07, 2016 (GMT -0500)
North Conway

Weather History for KCWN - December, 2013

Change the Weather History Date:

Saturday, December 21, 2013

  Actual Average (KIZG) Record (KIZG)
Temperature  
Mean Temperature 24 °F -  
Max Temperature 33 °F 32 °F 50 °F (2012)
Min Temperature 14 °F 11 °F -18 °F (2004)
Degree Days  
Heating Degree Days 42    
Moisture  
Dew Point 17 °F    
Average Humidity 84    
Maximum Humidity 100    
Minimum Humidity 49    
Precipitation  
Precipitation 0.00 in - - ()
Sea Level Pressure  
Sea Level Pressure 29.59 in    
Wind  
Wind Speed 7 mph (NNW)    
Max Wind Speed 17 mph    
Max Gust Speed 29 mph    
Averages and records for this station are not official NWS values.
T = Trace of Precipitation, MM = Missing Value Source: NWS Daily Summary

Daily Weather History Graph

Daily Weather History Graph

Search for Another Location

Airport or City:

Trip Planner

Search our weather history database for the weather conditions in past years. The results will help you decide how hot, cold, wet, or windy it might be!

Date:

Astronomy

Dec. 21, 2013 Rise Set
Actual Time 7:16 AM EST 4:09 PM EST
Civil Twilight 6:43 AM EST 4:42 PM EST
Nautical Twilight 6:06 AM EST 5:19 PM EST
Astronomical Twilight 5:31 AM EST 5:54 PM EST
Moon 8:30 PM EST (12/21) 9:33 AM EST (12/21)
Length of Visible Light 9h 59m
Length of Day
8h 53m
Waning Gibbous, 84% of the Moon is Illuminated
Dec 21
Waning Gibbous
Dec 25
Last Quarter
Jan 1
New
Jan 7
First Quarter
Jan 15
Full

Hourly Weather History & Observations

Time (EST) Temp. Windchill Dew Point Humidity Pressure Visibility Wind Dir Wind Speed Gust Speed Precip Events Conditions
6:56 AM 14.5 °F 5.7 °F 14.0 °F 98% 29.48 in - SSE 5.8 mph - N/A   Unknown
7:01 AM 14.0 °F 5.1 °F 14.0 °F 100% 29.49 in - South 5.8 mph - N/A   Unknown
7:06 AM 15.8 °F - 14.0 °F 93% 29.49 in - South 2.3 mph - N/A   Unknown
7:11 AM 15.8 °F - 14.0 °F 93% 29.49 in - Variable 1.2 mph - N/A   Unknown
7:16 AM 15.8 °F - 14.0 °F 93% 29.49 in - NW 2.3 mph - N/A   Unknown
7:21 AM 15.8 °F 7.2 °F 14.0 °F 93% 29.49 in - NNW 5.8 mph - N/A   Unknown
7:26 AM 14.0 °F 8.2 °F 14.0 °F 100% 29.49 in - NNE 3.5 mph - N/A   Unknown
7:31 AM 14.0 °F 6.5 °F 14.0 °F 100% 29.49 in - NW 4.6 mph - N/A   Unknown
7:36 AM 14.0 °F 6.5 °F 14.0 °F 100% 29.49 in - North 4.6 mph - N/A   Unknown
7:41 AM 14.0 °F 8.2 °F 14.0 °F 100% 29.49 in - NW 3.5 mph - N/A   Mostly Cloudy
7:56 AM 14.4 °F - 13.5 °F 96% 29.48 in - Variable 2.3 mph - N/A   Mostly Cloudy
8:11 AM 14.0 °F - 12.2 °F 93% 29.47 in - Variable 2.3 mph - N/A   Scattered Clouds
8:56 AM 22.8 °F 12.9 °F 23.4 °F 100% 29.46 in - NNW 9.2 mph - N/A   Partly Cloudy
9:56 AM 25.5 °F - 19.2 °F 77% 29.47 in - Variable 1.2 mph - N/A   Clear
10:56 AM 27.3 °F - 20.1 °F 74% 29.48 in - Variable 2.3 mph - N/A   Clear
11:56 AM 28.6 °F 20.7 °F 18.9 °F 67% 29.50 in - North 8.1 mph - N/A   Clear
12:56 PM 31.6 °F 23.7 °F 18.9 °F 59% 29.50 in - NNE 9.2 mph 15.0 mph N/A   Mostly Cloudy
1:56 PM 33.1 °F 24.4 °F 18.7 °F 56% 29.47 in - NNW 11.5 mph 19.6 mph N/A   Scattered Clouds
2:56 PM 32.4 °F 23.0 °F 15.4 °F 50% 29.46 in - North 12.7 mph 23.0 mph N/A   Mostly Cloudy
3:56 PM 32.0 °F 21.2 °F 14.7 °F 49% 29.48 in - North 16.1 mph 21.9 mph N/A   Mostly Cloudy
4:56 PM 29.8 °F 18.0 °F 15.3 °F 55% 29.52 in - North 17.3 mph 25.3 mph N/A   Mostly Cloudy
5:56 PM 27.9 °F 15.5 °F 16.5 °F 62% 29.56 in - North 17.3 mph 28.8 mph N/A   Mostly Cloudy
6:26 PM 26.6 °F 13.8 °F 17.6 °F 69% 29.59 in - North 17.3 mph 23.0 mph N/A   Mostly Cloudy
6:56 PM 25.5 °F 14.3 °F 19.8 °F 79% 29.78 in - North 12.7 mph 19.6 mph N/A   Mostly Cloudy
7:36 PM 23.0 °F 10.1 °F 21.2 °F 93% 29.63 in - NNW 15.0 mph 23.0 mph N/A   Overcast
7:56 PM 22.8 °F 10.4 °F 21.7 °F 96% 29.81 in - North 13.8 mph 21.9 mph N/A   Overcast
8:56 PM 22.5 °F 9.9 °F 20.5 °F 92% 29.82 in - NNW 13.8 mph 20.7 mph N/A   Overcast
9:21 PM 23.0 °F 9.6 °F 19.4 °F 86% 29.69 in - North 16.1 mph 24.2 mph N/A   Overcast
9:26 PM 23.0 °F 9.2 °F 19.4 °F 86% 29.69 in - NNW 17.3 mph 24.2 mph N/A   Overcast
9:56 PM 21.2 °F 9.5 °F 18.7 °F 90% 29.85 in - NNW 11.5 mph 25.3 mph N/A   Mostly Cloudy
10:56 PM 20.7 °F 8.8 °F 17.2 °F 87% 29.87 in - NNW 11.5 mph 18.4 mph N/A   Overcast
11:01 PM 21.2 °F 10.1 °F 17.6 °F 86% 29.74 in - North 10.4 mph 19.6 mph N/A   Overcast
11:11 PM 21.2 °F 8.3 °F 17.6 °F 86% 29.74 in - NNW 13.8 mph 20.7 mph N/A   Overcast
11:21 PM 21.2 °F 8.9 °F 17.6 °F 86% 29.75 in - NW 12.7 mph 20.7 mph N/A   Mostly Cloudy
11:56 PM 20.8 °F 9.0 °F 16.0 °F 81% 29.88 in - NNW 11.5 mph 20.7 mph N/A   Mostly Cloudy